Regional Weather Roundup
Issued by NWS Northern Indiana

Home | Current Version | Previous Version | Graphics & Text | Print | Product List | Glossary On
Versions: 1 2 3 4 5 6 7 8 9 10 11 12 13 14 15 16 17 18 19 20 21 22 23 24 25 26 27 28 29 30 31 32 33 34 35 36 37 38 39 40 41 42 43 44 45 46 47 48 49 50
000
ASUS43 KIWX 260010
RWRIWX

KIWX WEATHER ROUNDUP
NATIONAL WEATHER SERVICE NORTHERN INDIANA
700 PM EST TUE NOV 25 2014

NOTE: "FAIR" INDICATES FEW OR NO CLOUDS BELOW 12,000 FEET WITH NO
SIGNIFICANT WEATHER AND/OR OBSTRUCTIONS TO VISIBILITY.

* THESE STATIONS ARE NOT UNDER NWS QUALITY CONTROL. THEY ALSO MAY NOT
  REPORT WEATHER SUCH AS PRECIPITATION OR FOG.

INZ001>027-260100-
NORTHERN INDIANA

CITY           SKY/WX    TMP DP  RH WIND       PRES   REMARKS
VALPARAISO     CLOUDY    24  17  74 SW3       30.18R
6HR MIN TEMP:  24; 6HR MAX TEMP:  27;

MICHIGAN CITY* CLOUDY    27  18  69 S5        30.19R WCI  21
LAPORTE*       CLOUDY    27  20  73 W6        30.18R WCI  20
KNOX*          CLOUDY    25  19  76 W3        30.17R
6HR MIN TEMP:   9; 6HR MAX TEMP:  81;

SOUTH BEND     CLOUDY    27  19  72 S7        30.17R WCI  19
6HR MIN TEMP:  26; 6HR MAX TEMP:  28;

ELKHART*       CLOUDY    27  18  69 SW3       30.17R
GOSHEN         CLOUDY    26  18  71 SW6       30.16R WCI  19
MONTICELLO*    CLOUDY    26  20  80 NW6       30.18R WCI  19
6HR MIN TEMP:  26; 6HR MAX TEMP:  27;

LOGANSPORT*    CLOUDY    27  19  74 W6        30.20R WCI  20
ROCHESTER*     CLOUDY    28  21  74 SW3       30.19R
WARSAW*        CLOUDY    27  19  74 W5        30.17R WCI  21
ANGOLA*        CLOUDY    27  19  74 W6        30.15R WCI  20
FORT WAYNE     CLOUDY    26  20  77 CALM      30.18R
6HR MIN TEMP:  26; 6HR MAX TEMP:  29;

HUNTINGTON*    CLOUDY    26  20  80 CALM      30.18R
6HR MIN TEMP:  26; 6HR MAX TEMP:  30;

PERU/GRISSOM   CLOUDY    26  23  90 VRB5      30.17R WCI  20
6HR MIN TEMP:  25; 6HR MAX TEMP:  27;

MARION*          N/A     26  22  84 W10       30.19R WCI  16
6HR MIN TEMP:   7; 6HR MAX TEMP:  64;


$$
INZ028>050-260100-
CENTRAL INDIANA

CITY           SKY/WX    TMP DP  RH WIND       PRES   REMARKS
LAFAYETTE      CLOUDY    25  19  78 NW3       30.20R
6HR MIN TEMP:  25; 6HR MAX TEMP:  26;

KOKOMO*        CLOUDY    27  19  74 CALM      30.18R
6HR MIN TEMP:  27; 6HR MAX TEMP:  28;

MUNCIE*        CLOUDY    29  23  78 W7        30.18R WCI  22
6HR MIN TEMP:  29; 6HR MAX TEMP:  30;

INDIANAPOLIS   CLOUDY    28  22  78 NW6       30.18R WCI  22
6HR MIN TEMP:  28; 6HR MAX TEMP:  31;


$$
MIZ043>046-050>051-056>058-064>065-071>073-077>080-260100-
SOUTHWEST LOWER MICHIGAN

CITY           SKY/WX    TMP DP  RH WIND       PRES   REMARKS
BATTLE CREEK   CLOUDY    29  20  69 W8        30.15R WCI  21
6HR MIN TEMP:  29; 6HR MAX TEMP:  31;

BENTON HARBOR  CLOUDY    28  21  75 SW8       30.16R WCI  20
6HR MIN TEMP:  28; 6HR MAX TEMP:  28;

COLDWATER*     CLOUDY    29  22  77 W6        30.14F WCI  23
6HR MIN TEMP:  28; 6HR MAX TEMP:  29;

HILLSDALE*     CLOUDY    27  22  79 W6        30.13S WCI  21
6HR MIN TEMP:  27; 6HR MAX TEMP:  28;

HOLLAND        CLOUDY    31  22  69 W8        30.15R WCI  23
6HR MIN TEMP:  30; 6HR MAX TEMP:  32;

GRAND RAPIDS   CLOUDY    29  22  75 SW10      30.13R WCI  20
6HR MIN TEMP:  29; 6HR MAX TEMP:  31; 6HR PCP: TRACE;

KALAMAZOO      CLOUDY    28  20  71 SW6       30.15R WCI  22
6HR MIN TEMP:  28; 6HR MAX TEMP:  29;

STURGIS*       CLOUDY    27  19  74 CALM      30.15R
THREE RIVERS*  CLOUDY    29  21  73 W7        30.16R WCI  22

$$
OHZ001>008-015>018-024>025-260100-
NORTHWEST OHIO

CITY           SKY/WX    TMP DP  RH WIND       PRES   REMARKS
WAUSEON*       CLOUDY    28  21  74 NW7G14    30.16R WCI  21
FINDLAY        CLOUDY    30  22  72 W9        30.17R WCI  22
6HR MIN TEMP:  30; 6HR MAX TEMP:  34;

TOLEDO EXPRESS CLOUDY    29  20  69 W7        30.17R WCI  22
6HR MIN TEMP:  29; 6HR MAX TEMP:  32;

TOLEDO METCALF CLOUDY    30  20  66 NW9       30.19R WCI  22
6HR MIN TEMP:  30; 6HR MAX TEMP:  33;

LIMA           CLOUDY    29  23  78 W12       30.17R WCI  19
6HR MIN TEMP:  29; 6HR MAX TEMP:  34;


$$
AND FOR LAKE MICHIGAN COASTAL AND OPEN LAKE BUOY OBSERVATIONS

STATION/POSITION TEMP    WIND        PRES    VSBY  WAVE
                 AIR SEA DIR/SP/G                  HT/PER
                 (F)     (DEG/KT/KT) (MB)    (MI)  (FT/S)
CALUMET HARBOR    24     210/  5/  8 1020.6R
MICHIGAN CITY     26     160/  7/  9   N/A
SAINT JOSEPH      30     200/  7/ 12 1022.0R
SOUTH LAKE BUOY   29 42  270/ 10/ 16 1021.5R         3/ 6

$$
&&


USA.gov is the U.S. government's official web portal to all federal, state and local government web resources and services.